Location: Oshawa
(43.9000°N, 78.8670°W)
Time: 19:57:29
(UTC-04:00)

Explorer 7 - Visible Passes

Search period start: 30 September 2014 00:00
Search period end: 10 October 2014 00:00
Orbit: 491 x 706 km, 50.3° (Epoch: 30 September)

Date Brightness Start Highest point End Pass type
(mag) Time Alt. Az. Time Alt. Az. Time Alt. Az.
30 Sep 8.9 20:35:53 10° W 20:39:39 25° SW 20:42:37 13° S visible
01 Oct 9.6 20:47:04 10° W 20:49:34 15° SW 20:51:58 10° SSW visible
02 Oct 8.2 19:14:58 10° WNW 19:19:30 44° SW 19:23:44 10° SSE visible
03 Oct 9.1 19:25:33 10° WNW 19:29:32 27° SW 19:33:18 10° SSE visible
04 Oct 9.7 19:36:35 10° W 19:39:27 16° SW 19:42:13 10° SSW visible
